| time (UTC) | temp C | wind direction | speed KPH | gust KPH | rain 1hr cm | rain 24hr cm | rain mn cm | humidity % | barometer mb |
| 20260506102757 | 13 | 187 | 3.2 | 12.9 | 0.00 | 0.00 | 0.00 | 77 | 1013.1 |
| 20260506101256 | 13 | 187 | 3.2 | 9.7 | 0.00 | 0.00 | 0.00 | 77 | 1013.0 |
| 20260506100252 | 13 | 167 | 1.6 | 9.7 | 0.00 | 0.00 | 0.00 | 76 | 1012.9 |
| 20260506095253 | 13 | 210 | 1.6 | 8.0 | 0.00 | 0.00 | 0.00 | 77 | 1012.9 |
| 20260506094747 | 13 | 221 | 3.2 | 12.9 | 0.00 | 0.00 | 0.00 | 77 | 1013.0 |
| 20260506093246 | 13 | 214 | 3.2 | 8.0 | 0.00 | 0.00 | 0.00 | 77 | 1013.0 |
| 20260506092244 | 13 | 241 | 3.2 | 11.3 | 0.00 | 0.00 | 0.00 | 77 | 1013.1 |
| 20260506091249 | 13 | 214 | 1.6 | 8.0 | 0.00 | 0.00 | 0.00 | 76 | 1013.2 |
| 20260506091243 | 13 | 250 | 3.2 | 8.0 | 0.00 | 0.00 | 0.00 | 76 | 1013.2 |
| 20260506085745 | 14 | 245 | 1.6 | 11.3 | 0.00 | 0.00 | 0.00 | 77 | 1013.1 |
| 20260506084241 | 14 | 183 | 3.2 | 12.9 | 0.00 | 0.00 | 0.00 | 76 | 1013.3 |
| 20260506083240 | 14 | 203 | 3.2 | 11.3 | 0.00 | 0.00 | 0.00 | 75 | 1013.3 |
| 20260506082242 | 13 | 205 | 3.2 | 14.5 | 0.00 | 0.00 | 0.00 | 75 | 1013.2 |
| 20260506081242 | 13 | 123 | 1.6 | 8.0 | 0.00 | 0.00 | 0.00 | 76 | 1013.3 |
| 20260506080238 | 13 | 224 | 3.2 | 9.7 | 0.00 | 0.00 | 0.00 | 76 | 1013.3 |
| 20260506073236 | 13 | 169 | 3.2 | 11.3 | 0.00 | 0.00 | 0.00 | 76 | 1013.1 |
| 20260506072234 | 13 | 212 | 3.2 | 9.7 | 0.00 | 0.00 | 0.00 | 77 | 1013.2 |
| 20260506071236 | 13 | 250 | 3.2 | 12.9 | 0.00 | 0.00 | 0.00 | 78 | 1013.1 |
| 20260506070235 | 13 | 181 | 3.2 | 9.7 | 0.00 | 0.00 | 0.00 | 79 | 1013.1 |
| 20260506062230 | 13 | 193 | 1.6 | 8.0 | 0.00 | 0.00 | 0.00 | 79 | 1013.0 |
| 20260506061729 | 13 | 134 | 1.6 | 6.4 | 0.00 | 0.00 | 0.00 | 80 | 1013.1 |
| 20260506060228 | 13 | 153 | 3.2 | 8.0 | 0.00 | 0.00 | 0.00 | 80 | 1013.2 |
| 20260506051219 | 14 | 221 | 1.6 | 8.0 | 0.00 | 0.00 | 0.00 | 80 | 1013.6 |
| 20260506050722 | 13 | 155 | 3.2 | 8.0 | 0.00 | 0.00 | 0.00 | 80 | 1013.7 |
| 20260506044221 | 13 | 260 | 3.2 | 9.7 | 0.00 | 0.00 | 0.00 | 80 | 1013.6 |
| 20260506043219 | 13 | 221 | 3.2 | 8.0 | 0.00 | 0.00 | 0.00 | 80 | 1013.7 |
| 20260506042220 | 13 | 235 | 1.6 | 6.4 | 0.00 | 0.00 | 0.00 | 80 | 1013.6 |
| 20260506041218 | 13 | 212 | 3.2 | 9.7 | 0.00 | 0.00 | 0.00 | 80 | 1013.6 |
| 20260506040219 | 13 | 158 | 3.2 | 9.7 | 0.00 | 0.00 | 0.00 | 80 | 1013.6 |
| 20260506035218 | 13 | 141 | 1.6 | 8.0 | 0.00 | 0.00 | 0.00 | 81 | 1013.5 |
| 20260506034221 | 13 | 241 | 3.2 | 12.9 | 0.00 | 0.00 | 0.00 | 81 | 1013.6 |
| 20260506033719 | 13 | 215 | 1.6 | 9.7 | 0.00 | 0.00 | 0.00 | 81 | 1013.6 |
| 20260506032212 | 13 | 191 | 3.2 | 9.7 | 0.00 | 0.00 | 0.00 | 81 | 1013.4 |
| 20260506031214 | 13 | 235 | 3.2 | 12.9 | 0.00 | 0.00 | 0.00 | 81 | 1013.3 |
| 20260506030214 | 13 | 215 | 1.6 | 6.4 | 0.00 | 0.00 | 0.00 | 81 | 1013.3 |
| 20260506025214 | 13 | 250 | 3.2 | 8.0 | 0.00 | 0.00 | 0.00 | 81 | 1013.3 |
| 20260506024212 | 13 | 176 | 3.2 | 14.5 | 0.00 | 0.00 | 0.00 | 81 | 1013.3 |
| 20260506023209 | 13 | 163 | 1.6 | 12.9 | 0.00 | 0.00 | 0.00 | 81 | 1013.3 |
| 20260506022206 | 13 | 191 | 1.6 | 6.4 | 0.00 | 0.00 | 0.00 | 81 | 1013.4 |
| 20260506021206 | 13 | 203 | 1.6 | 8.0 | 0.00 | 0.00 | 0.00 | 80 | 1013.4 |
| 20260506020706 | 13 | 210 | 1.6 | 8.0 | 0.00 | 0.00 | 0.00 | 80 | 1013.5 |
| 20260506015202 | 13 | 208 | 1.6 | 6.4 | 0.00 | 0.00 | 0.00 | 79 | 1013.5 |
| 20260506014703 | 13 | 203 | 3.2 | 11.3 | 0.00 | 0.00 | 0.00 | 78 | 1013.4 |
| 20260506013203 | 13 | 203 | 3.2 | 11.3 | 0.00 | 0.00 | 0.00 | 78 | 1013.2 |
| 20260506012203 | 13 | 191 | 3.2 | 11.3 | 0.00 | 0.00 | 0.00 | 78 | 1013.2 |
| 20260506011202 | 13 | 229 | 3.2 | 9.7 | 0.00 | 0.00 | 0.00 | 78 | 1013.3 |
| 20260506010159 | 13 | 197 | 3.2 | 8.0 | 0.00 | 0.00 | 0.00 | 78 | 1013.2 |
| 20260506005158 | 13 | 197 | 3.2 | 8.0 | 0.00 | 0.00 | 0.00 | 78 | 1013.2 |
| 20260506004701 | 13 | 218 | 1.6 | 8.0 | 0.00 | 0.00 | 0.00 | 78 | 1013.0 |
| 20260506004316 | 13 | 155 | 3.2 | 8.0 | 0.00 | 0.00 | 0.00 | 78 | 1012.8 |
| 20260506002158 | 14 | 198 | 3.2 | 11.3 | 0.00 | 0.00 | 0.00 | 78 | 1012.2 |
| 20260506001200 | 14 | 197 | 3.2 | 12.9 | 0.00 | 0.00 | 0.00 | 78 | 1011.8 |
| 20260506000159 | 14 | 206 | 4.8 | 9.7 | 0.00 | 0.00 | 0.00 | 78 | 1011.7 |
| 20260505235200 | 14 | 194 | 4.8 | 12.9 | 0.00 | 0.00 | 0.00 | 78 | 1011.6 |
| 20260505234159 | 14 | 240 | 4.8 | 11.3 | 0.00 | 0.00 | 0.00 | 79 | 1011.5 |
| 20260505233158 | 14 | 257 | 3.2 | 12.9 | 0.00 | 0.00 | 0.00 | 79 | 1011.5 |
| 20260505232159 | 14 | 217 | 3.2 | 12.9 | 0.00 | 0.00 | 0.00 | 79 | 1011.4 |
| 20260505231159 | 14 | 229 | 3.2 | 11.3 | 0.00 | 0.00 | 0.00 | 78 | 1011.6 |
| 20260505230201 | 15 | 219 | 3.2 | 11.3 | 0.00 | 0.00 | 0.00 | 78 | 1011.4 |
| 20260505225159 | 15 | 181 | 3.2 | 11.3 | 0.00 | 0.00 | 0.00 | 77 | 1011.2 |
| 20260505224201 | 15 | 204 | 3.2 | 11.3 | 0.00 | 0.00 | 0.00 | 76 | 1011.2 |
| 20260505223159 | 15 | 197 | 4.8 | 14.5 | 0.00 | 0.00 | 0.00 | 75 | 1011.1 |
| 20260505222159 | 16 | 181 | 3.2 | 11.3 | 0.00 | 0.00 | 0.00 | 73 | 1011.0 |
| 20260505221702 | 16 | 203 | 4.8 | 11.3 | 0.00 | 0.00 | 0.00 | 72 | 1010.8 |
| 20260505220158 | 16 | 277 | 4.8 | 11.3 | 0.00 | 0.00 | 0.00 | 72 | 1011.0 |
| 20260505215201 | 16 | 187 | 4.8 | 11.3 | 0.00 | 0.00 | 0.00 | 72 | 1010.9 |
| 20260505214159 | 16 | 225 | 4.8 | 12.9 | 0.00 | 0.00 | 0.00 | 73 | 1010.8 |
| 20260505213158 | 16 | 208 | 4.8 | 16.1 | 0.00 | 0.00 | 0.00 | 72 | 1010.8 |
| 20260505212159 | 17 | 215 | 3.2 | 8.0 | 0.00 | 0.00 | 0.00 | 73 | 1010.6 |
| 20260505211158 | 16 | 200 | 6.4 | 12.9 | 0.00 | 0.00 | 0.00 | 72 | 1010.5 |
| 20260505205159 | 17 | 264 | 4.8 | 17.7 | 0.00 | 0.00 | 0.00 | 70 | 1010.5 |
| 20260505204159 | 17 | 245 | 4.8 | 17.7 | 0.00 | 0.00 | 0.00 | 69 | 1010.5 |
| 20260505203158 | 18 | 225 | 4.8 | 16.1 | 0.00 | 0.00 | 0.00 | 68 | 1010.4 |
| 20260505202159 | 18 | 127 | 4.8 | 12.9 | 0.00 | 0.00 | 0.00 | 69 | 1010.3 |
| 20260505201200 | 18 | 184 | 4.8 | 14.5 | 0.00 | 0.00 | 0.00 | 70 | 1010.5 |
| 20260505200700 | 18 | 160 | 4.8 | 12.9 | 0.00 | 0.00 | 0.00 | 70 | 1010.6 |
| 20260505195700 | 18 | 217 | 4.8 | 16.1 | 0.00 | 0.00 | 0.00 | 69 | 1010.8 |
| 20260505194159 | 18 | 167 | 4.8 | 14.5 | 0.00 | 0.00 | 0.00 | 70 | 1010.8 |
| 20260505193200 | 18 | 117 | 4.8 | 11.3 | 0.00 | 0.00 | 0.00 | 70 | 1010.8 |
| 20260505192200 | 18 | 246 | 3.2 | 9.7 | 0.00 | 0.00 | 0.00 | 69 | 1010.8 |
| 20260505191200 | 18 | 198 | 4.8 | 12.9 | 0.00 | 0.00 | 0.00 | 69 | 1010.9 |
| 20260505190159 | 18 | 170 | 4.8 | 11.3 | 0.00 | 0.00 | 0.00 | 68 | 1011.0 |
| 20260505185158 | 18 | 228 | 4.8 | 9.7 | 0.00 | 0.00 | 0.00 | 68 | 1010.9 |
| 20260505184201 | 18 | 150 | 3.2 | 9.7 | 0.00 | 0.00 | 0.00 | 69 | 1011.0 |
| 20260505183200 | 18 | 201 | 4.8 | 12.9 | 0.00 | 0.00 | 0.00 | 67 | 1011.0 |
| 20260505182202 | 20 | 139 | 3.2 | 9.7 | 0.00 | 0.00 | 0.00 | 65 | 1011.1 |
| 20260505181159 | 19 | 136 | 3.2 | 9.7 | 0.00 | 0.00 | 0.00 | 66 | 1011.2 |
| 20260505180213 | 20 | 193 | 3.2 | 11.3 | 0.00 | 0.00 | 0.00 | 67 | 1011.4 |
| 20260505175159 | 19 | 203 | 3.2 | 11.3 | 0.00 | 0.00 | 0.00 | 67 | 1011.5 |
| 20260505174200 | 20 | 155 | 3.2 | 8.0 | 0.00 | 0.00 | 0.00 | 67 | 1011.5 |
| 20260505173159 | 19 | 209 | 3.2 | 11.3 | 0.00 | 0.00 | 0.00 | 67 | 1011.6 |
| 20260505172158 | 20 | 187 | 3.2 | 11.3 | 0.00 | 0.00 | 0.00 | 66 | 1011.6 |
| 20260505171159 | 20 | 139 | 3.2 | 8.0 | 0.00 | 0.00 | 0.00 | 64 | 1011.5 |
| 20260505170701 | 20 | 210 | 3.2 | 8.0 | 0.00 | 0.00 | 0.00 | 65 | 1011.8 |
| 20260505165201 | 20 | 134 | 3.2 | 8.0 | 0.00 | 0.00 | 0.00 | 65 | 1011.9 |
| 20260505164701 | 20 | 198 | 3.2 | 6.4 | 0.00 | 0.00 | 0.00 | 66 | 1012.0 |
| 20260505163700 | 19 | 159 | 3.2 | 8.0 | 0.00 | 0.00 | 0.00 | 68 | 1012.0 |
| 20260505162159 | 18 | 165 | 3.2 | 8.0 | 0.00 | 0.00 | 0.00 | 68 | 1012.1 |
| 20260505161200 | 18 | 203 | 4.8 | 17.7 | 0.00 | 0.00 | 0.00 | 69 | 1012.2 |
| 20260505160159 | 18 | 179 | 4.8 | 11.3 | 0.00 | 0.00 | 0.00 | 69 | 1012.3 |
| 20260505152205 | 18 | 131 | 3.2 | 11.3 | 0.00 | 0.00 | 0.00 | 68 | 1012.3 |
| 20260505151158 | 19 | 207 | 3.2 | 11.3 | 0.00 | 0.00 | 0.00 | 68 | 1012.1 |
| 20260505150200 | 19 | 152 | 3.2 | 11.3 | 0.00 | 0.00 | 0.00 | 67 | 1012.2 |
| 20260505140200 | 19 | 162 | 1.6 | 4.8 | 0.00 | 0.00 | 0.00 | 69 | 1012.1 |
| 20260505130159 | 16 | 162 | 1.6 | 8.0 | 0.00 | 0.00 | 0.00 | 75 | 1012.3 |
| 20260505124159 | 16 | 249 | 1.6 | 6.4 | 0.00 | 0.00 | 0.00 | 77 | 1012.4 |
| 20260505123202 | 15 | 229 | 1.6 | 6.4 | 0.00 | 0.00 | 0.00 | 78 | 1012.2 |
| 20260505122158 | 15 | 232 | 1.6 | 6.4 | 0.00 | 0.00 | 0.00 | 79 | 1012.2 |
| 20260505121201 | 15 | 216 | 1.6 | 8.0 | 0.00 | 0.00 | 0.00 | 80 | 1012.3 |
| 20260505120158 | 14 | 179 | 1.6 | 6.4 | 0.00 | 0.00 | 0.00 | 80 | 1012.3 |
| 20260505115200 | 14 | 135 | 1.6 | 4.8 | 0.00 | 0.00 | 0.00 | 81 | 1012.3 |
| 20260505114206 | 13 | 219 | 1.6 | 4.8 | 0.00 | 0.00 | 0.00 | 80 | 1012.3 |
| 20260505114200 | 13 | 215 | 1.6 | 8.0 | 0.00 | 0.00 | 0.00 | 81 | 1012.3 |
| 20260505112159 | 12 | 150 | 0.0 | 6.4 | 0.00 | 0.00 | 0.00 | 79 | 1012.5 |
| 20260505111158 | 12 | 215 | 0.0 | 6.4 | 0.00 | 0.00 | 0.00 | 79 | 1012.5 |
| 20260505110218 | 11 | 179 | 0.0 | 6.4 | 0.00 | 0.00 | 0.00 | 77 | 1012.2 |
| 20260505110211 | 11 | 204 | 1.6 | 3.2 | 0.00 | 0.00 | 0.00 | 78 | 1012.2 |